Regional Weather Roundup
Issued by NWS Albany, NY

Home | Current Version | Previous Version | Text Only | Print | Product List | Glossary On
Versions: 1 2 3 4 5 6 7 8 9 10 11 12 13 14 15 16 17 18 19 20 21 22 23 24 25 26 27 28 29 30 31 32 33 34 35 36 37 38 39 40 41 42 43 44 45 46 47 48 49
000
ASUS41 KALY 020710
RWRALY

NEW YORK STATE HOURLY WEATHER ROUNDUP
NATIONAL WEATHER SERVICE ALBANY NY
300 AM EDT WED SEP 02 2015

NOTE: "FAIR" INDICATES FEW OR NO CLOUDS BELOW 12,000 FEET WITH NO
SIGNIFICANT WEATHER AND/OR NO OBSTRUCTIONS TO VISIBILITY.

NYZ032-033-038>043-046>054-057>066-NYZ062>081-020800-
EAST


CITY           SKY/WX    TMP DP  RH WIND       PRES   REMARKS
ALBANY         CLEAR     66  62  87 CALM      30.03F
GLENS FALLS    FOG       60  58  92 CALM      30.02S VSB 3/4
POUGHKEEPSIE   CLEAR     62  59  90 CALM      30.03F
NEWBURGH       CLEAR     64  63  94 CALM      30.05
MONTGOMERY     CLEAR     62  60  93 CALM      30.04F FOG
WHITE PLAINS   CLEAR     67  64  90 CALM      30.04F
ISLIP          CLEAR     68  66  93 CALM      30.02F
NEW YORK CITY  CLEAR     77  67  71 SW5       30.03F
CENTRAL PARK   CLEAR     76  64  66 CALM      30.06F
$$

NYZ005>009-017-018-044>046-055-056-020800-
CENTRAL


CITY           SKY/WX    TMP DP  RH WIND       PRES   REMARKS
FULTON         FOG       64  62  93 CALM      30.04S VSB 1/2
SYRACUSE       MOCLDY    63  62  97 CALM      30.03F FOG
ROME           CLEAR     61  59  93 CALM      30.06S
ELMIRA         FOG       60  60 100 CALM      30.07S VSB 1/4
BINGHAMTON     FOG       65  65 100 CALM      30.08F VSB 1/4
MONTICELLO     CLEAR     61  61 100 N5        30.10F
$$

NYZ026>034-041>043-020800-
NORTH


CITY           SKY/WX    TMP DP  RH WIND       PRES   REMARKS
WATERTOWN      CLEAR     59  58  96 NE3       30.02F FOG
FORT DRUM      NOT AVBL
MASSENA        CLEAR     65  63  93 SW6       30.00F FOG
SARANAC LAKE   FOG       55  55 100 CALM      30.06F VSB 1/4
PLATTSBURGH    CLEAR     62  61  96 CALM      30.00S
$$

NYZ001>004-010>016-019>021-020800-
WEST


CITY           SKY/WX    TMP DP  RH WIND       PRES   REMARKS
NIAGARA FALLS  CLEAR     67  66  97 CALM      30.04F FOG
BUFFALO        CLEAR     69  66  90 SW6       30.06S FOG
DUNKIRK        CLEAR     65  62  90 CALM      30.07F FOG
JAMESTOWN        N/A     63  61  94 S5        30.12S VSB<1/4
WELLSVILLE     FOG       62  60  93 CALM      30.14F VSB<1/4
ROCHESTER      MOCLDY    66  64  93 SW5       30.05S FOG
PENN YAN       CLEAR     67  65  93 SW5       30.07F FOG
$$

             KEY
       WCI = WIND CHILL INDEX
       VSB = VISIBILITY
       HX  = HEAT INDEX
$$


USA.gov is the U.S. government's official web portal to all federal, state and local government web resources and services.